QPF
0.00 0.01 0.01 0.01 0.00 0.00 0.01 0.04 0.03 0.02 0.01 0.05 0.05 0.00 0.00 0.00 0.00 0.00 0.00 0.00 0.00 0.00 0.00 0.00 0.00 0.00 0.00 0.00 0.00 0.00 0.00 0.00 0.00 0.00 0.00 0.00 0.00 0.00 0.00 0.00 0.00 0.00 0.00 0.00 0.00
0.00 0.01 0.00 0.00 0.00 0.00 0.00 0.09 0.10 0.01 0.00 0.01 0.04 0.00 0.00 0.00 0.00 0.00 0.00 0.00 0.00 0.00 0.00 0.00 0.00 0.00 0.00 0.00 0.00 0.00 0.00 0.00 0.00 0.00 0.00 0.00 0.00 0.00 0.00 0.00 0.00 0.00 0.00 0.00 0.00
0.01 0.06 0.05 0.00 0.00 0.02 0.01 0.10 0.01 0.00 0.00 0.00 0.00 0.00 0.00 0.00 0.00 0.00 0.00 0.00 0.00 0.00 0.00 0.00 0.00 0.00 0.00 0.00 0.00 0.00 0.00 0.00 0.00 0.00 0.00 0.00 0.00 0.00 0.00 0.00 0.00 0.00 0.00 0.00 0.00
0.01 0.01 0.01 0.00 0.00 0.01 0.00 0.00 0.00 0.00 0.00 0.00 0.00 0.00 0.00 0.00 0.00 0.00 0.00 0.00 0.00 0.00 0.00 0.00 0.00 0.00 0.00 0.00 0.00 0.00 0.00 0.00 0.00 0.00 0.00 0.00 0.00 0.00 0.00 0.00 0.00 0.00 0.00 0.00 0.00
0.00 0.00 0.00 0.00 0.00 0.00 0.00 0.00 0.00 0.00 0.00 0.00 0.00 0.00 0.00 0.00 0.00 0.00 0.00 0.00 0.00 0.00 0.00 0.00 0.00 0.00 0.00 0.00 0.00 0.00 0.00 0.00 0.00 0.00 0.00 0.00 0.00 0.00 0.00 0.00 0.00 0.00 0.00 0.00 0.00
0.00 0.00 0.00 0.00 0.00 0.00 0.00 0.00 0.00 0.00 0.00 0.00 0.00 0.00 0.00 0.00 0.00 0.00 0.00 0.00 0.00 0.00 0.00 0.00 0.00 0.00 0.00 0.00 0.00 0.00 0.00 0.00 0.00 0.00 0.00 0.00 0.00 0.00 0.00 0.00 0.00 0.00 0.00 0.00 0.00
0.00 0.00 0.00 0.00 0.00 0.00 0.00 0.00 0.00 0.00 0.00 0.00 0.00 0.00 0.00 0.00 0.00 0.00 0.00 0.00 0.00 0.00 0.00 0.00 0.00 0.00 0.00 0.00 0.00 0.00 0.00 0.00 0.00 0.00 0.00 0.00 0.00 0.00 0.00 0.00 0.00 0.00 0.00 0.00 0.00
0.00 0.00 0.00 0.00 0.00 0.00 0.00 0.00 0.00 0.00 0.00 0.00 0.00 0.00 0.02 0.01 0.00 0.00 0.00 0.00 0.00 0.00 0.00 0.00 0.00 0.00 0.00 0.00 0.00 0.00 0.00 0.00 0.00 0.00 0.00 0.00 0.00 0.00 0.00 0.00 0.00 0.00 0.00 0.00 0.00
0.00 0.00 0.00 0.00 0.00 0.00 0.00 0.00 0.00 0.00 0.00 0.00 0.00 0.00 0.01 0.03 0.01 0.00 0.00 0.00 0.00 0.00 0.00 0.00 0.00 0.00 0.00 0.00 0.00 0.00 0.00 0.00 0.00 0.00 0.00 0.00 0.00 0.00 0.00 0.00 0.00 0.00 0.00 0.00 0.00
0.00 0.00 0.00 0.00 0.00 0.00 0.00 0.00 0.00 0.00 0.00 0.00 0.00 0.00 0.00 0.03 0.03 0.00 0.00 0.00 0.00 0.00 0.00 0.00 0.00 0.00 0.00 0.00 0.00 0.00 0.00 0.00 0.00 0.00 0.00 0.00 0.00 0.00 0.00 0.00 0.00 0.00 0.00 0.00 0.00
0.00 0.00 0.00 0.00 0.00 0.00 0.00 0.00 0.00 0.00 0.00 0.00 0.00 0.00 0.00 0.01 0.03 0.00 0.00 0.00 0.00 0.00 0.00 0.00 0.00 0.00 0.00 0.00 0.00 0.00 0.00 0.00 0.00 0.00 0.00 0.00 0.00 0.00 0.00 0.00 0.00 0.00 0.00 0.00 0.00
0.00 0.00 0.00 0.00 0.00 0.00 0.00 0.00 0.00 0.00 0.00 0.00 0.00 0.00 0.00 0.01 0.01 0.00 0.00 0.00 0.00 0.00 0.00 0.00 0.00 0.00 0.00 0.00 0.00 0.00 0.00 0.00 0.00 0.00 0.00 0.00 0.00 0.00 0.00 0.00 0.00 0.00 0.00 0.00 0.00
0.00 0.00 0.00 0.00 0.00 0.00 0.00 0.00 0.00 0.00 0.00 0.00 0.00 0.00 0.00 0.00 0.00 0.00 0.00 0.00 0.00 0.00 0.00 0.00 0.00 0.00 0.00 0.00 0.00 0.00 0.00 0.00 0.00 0.00 0.00 0.00 0.00 0.00 0.00 0.00 0.00 0.00 0.00 0.00 0.00
0.00 0.00 0.00 0.00 0.00 0.00 0.00 0.00 0.00 0.00 0.00 0.00 0.00 0.00 0.00 0.00 0.00 0.00 0.00 0.00 0.00 0.00 0.00 0.00 0.00 0.00 0.00 0.00 0.00 0.00 0.00 0.00 0.00 0.00 0.00 0.00 0.00 0.00 0.00 0.00 0.00 0.00 0.00 0.00 0.00
0.00 0.00 0.00 0.00 0.00 0.00 0.00 0.00 0.00 0.00 0.00 0.00 0.00 0.00 0.00 0.00 0.00 0.00 0.00 0.00 0.00 0.00 0.00 0.00 0.00 0.00 0.00 0.00 0.00 0.00 0.00 0.00 0.00 0.00 0.00 0.00 0.00 0.00 0.00 0.00 0.00 0.00 0.00 0.00 0.00
0.00 0.00 0.00 0.00 0.00 0.00 0.00 0.00 0.00 0.00 0.01 0.00 0.00 0.00 0.00 0.00 0.00 0.00 0.00 0.00 0.00 0.00 0.00 0.00 0.00 0.00 0.00 0.00 0.00 0.00 0.00 0.00 0.00 0.00 0.00 0.00 0.00 0.00 0.00 0.00 0.00 0.00 0.00 0.00 0.00
0.00 0.00 0.00 0.00 0.00 0.00 0.00 0.00 0.00 0.00 0.00 0.00 0.00 0.00 0.00 0.00 0.00 0.00 0.00 0.00 0.00 0.00 0.00 0.00 0.00 0.00 0.00 0.00 0.00 0.00 0.00 0.00 0.00 0.00 0.00 0.00 0.00 0.00 0.00 0.00 0.00 0.00 0.00 0.00 0.00
0.00 0.00 0.00 0.00 0.00 0.00 0.00 0.00 0.00 0.00 0.00 0.00 0.00 0.00 0.00 0.00 0.00 0.00 0.00 0.00 0.00 0.00 0.00 0.00 0.00 0.00 0.00 0.00 0.00 0.00 0.00 0.00 0.00 0.00 0.00 0.00 0.00 0.00 0.00 0.00 0.00 0.00 0.00 0.00 0.00
0.00 0.00 0.00 0.00 0.00 0.00 0.00 0.00 0.00 0.00 0.00 0.00 0.00 0.00 0.00 0.00 0.00 0.00 0.00 0.00 0.00 0.00 0.00 0.00 0.00 0.00 0.00 0.00 0.00 0.00 0.00 0.00 0.00 0.00 0.00 0.00 0.00 0.00 0.00 0.00 0.00 0.00 0.00 0.00 0.00
0.00 0.00 0.00 0.00 0.00 0.00 0.00 0.00 0.00 0.00 0.00 0.00 0.00 0.00 0.00 0.00 0.00 0.00 0.00 0.00 0.00 0.00 0.00 0.00 0.00 0.00 0.00 0.00 0.00 0.00 0.00 0.00 0.00 0.00 0.00 0.00 0.00 0.00 0.00 0.00 0.00 0.00 0.00 0.00 0.00
0.00 0.00 0.00 0.00 0.00 0.00 0.00 0.00 0.00 0.00 0.00 0.00 0.00 0.00 0.00 0.00 0.00 0.00 0.00 0.00 0.00 0.00 0.00 0.00 0.00 0.00 0.00 0.00 0.00 0.00 0.00 0.00 0.00 0.00 0.00 0.00 0.00 0.00 0.00 0.00 0.00 0.00 0.00 0.00 0.00
0.00 0.00 0.00 0.00 0.00 0.00 0.00 0.00 0.00 0.00 0.00 0.00 0.00 0.00 0.00 0.00 0.00 0.00 0.00 0.00 0.00 0.00 0.00 0.00 0.00 0.00 0.00 0.00 0.00 0.00 0.00 0.00 0.00 0.00 0.00 0.00 0.00 0.00 0.00 0.00 0.00 0.00 0.00 0.00 0.00
0.00 0.00 0.00 0.00 0.00 0.00 0.00 0.00 0.00 0.00 0.00 0.00 0.00 0.00 0.00 0.00 0.00 0.00 0.00 0.00 0.00 0.00 0.00 0.00 0.00 0.00 0.00 0.00 0.00 0.00 0.00 0.00 0.00 0.00 0.00 0.00 0.00 0.00 0.00 0.00 0.00 0.00 0.00 0.00 0.00
0.00 0.00 0.00 0.00 0.00 0.00 0.00 0.00 0.00 0.00 0.00 0.00 0.00 0.00 0.00 0.00 0.00 0.00 0.00 0.00 0.00 0.00 0.00 0.00 0.00 0.00 0.00 0.00 0.00 0.00 0.00 0.00 0.00 0.00 0.00 0.00 0.00 0.00 0.00 0.00 0.00 0.00 0.00 0.00 0.00
0.00 0.00 0.00 0.00 0.00 0.00 0.00 0.00 0.00 0.00 0.00 0.00 0.00 0.00 0.00 0.00 0.00 0.00 0.00 0.00 0.00 0.00 0.00 0.00 0.00 0.00 0.00 0.00 0.00 0.00 0.00 0.00 0.00 0.00 0.00 0.00 0.00 0.00 0.00 0.00 0.00 0.00 0.00 0.00 0.00
0.00 0.00 0.00 0.00 0.00 0.00 0.00 0.00 0.00 0.00 0.00 0.00 0.00 0.00 0.00 0.00 0.00 0.00 0.00 0.00 0.00 0.00 0.00 0.00 0.00 0.00 0.00 0.00 0.00 0.00 0.00 0.00 0.00 0.00 0.00 0.00 0.00 0.00 0.00 0.00 0.00 0.00 0.00 0.00 0.00
0.00 0.00 0.00 0.00 0.00 0.00 0.00 0.00 0.00 0.00 0.00 0.00 0.00 0.00 0.00 0.00 0.00 0.00 0.00 0.00 0.00 0.00 0.00 0.00 0.00 0.00 0.00 0.00 0.00 0.00 0.00 0.00 0.00 0.00 0.00 0.00 0.00 0.00 0.00 0.00 0.00 0.00 0.00 0.00 0.00
MSLP
1016.46 1016.40 1016.24 1016.27 1016.28 1016.19 1016.28 1015.94 1016.11 1016.20 1016.40 1016.26 1015.89 1016.01 1016.28 1016.30 1016.14 1016.08 1015.36 1014.68 1014.55 1014.22 1014.18 1013.98 1013.47 1013.26 1013.37 1013.42 1013.35 1013.44 1014.56 1015.12 1014.72 1014.27 1013.85 1013.44 1013.39 1013.56 1013.70 1014.09 1014.58 1015.11 1015.58 1015.92 1016.09
1016.41 1016.46 1016.39 1016.29 1016.42 1016.38 1016.20 1016.20 1015.80 1015.98 1016.18 1016.08 1016.02 1016.14 1016.42 1016.41 1016.15 1015.30 1014.18 1014.14 1014.12 1014.16 1014.30 1013.78 1013.30 1013.24 1013.58 1013.42 1013.52 1013.74 1014.69 1014.93 1014.94 1014.58 1014.09 1013.66 1013.65 1013.87 1014.23 1014.51 1015.22 1015.86 1015.96 1015.99 1016.24
1016.54 1016.52 1016.41 1016.44 1016.44 1016.11 1015.84 1015.61 1015.59 1015.82 1016.38 1016.56 1016.58 1016.51 1016.36 1016.22 1016.01 1014.41 1013.91 1013.85 1013.70 1013.84 1014.17 1013.37 1012.89 1013.01 1013.31 1013.28 1013.42 1013.70 1014.53 1014.69 1014.93 1014.72 1014.29 1014.15 1014.17 1014.25 1014.62 1015.12 1015.00 1015.35 1016.13 1016.33 1016.60
1016.85 1016.63 1016.47 1016.30 1016.20 1016.01 1015.91 1015.82 1015.89 1016.23 1016.40 1016.51 1016.50 1016.19 1016.11 1016.23 1015.60 1014.19 1013.63 1013.35 1013.28 1013.70 1014.18 1012.93 1012.86 1012.97 1013.16 1013.39 1013.25 1014.07 1014.60 1014.64 1014.98 1014.93 1014.67 1014.69 1014.58 1014.62 1014.93 1015.14 1015.13 1015.17 1015.89 1016.43 1016.99
1016.84 1016.61 1016.42 1016.21 1016.11 1016.01 1015.94 1015.89 1015.98 1016.08 1016.06 1015.96 1015.84 1015.95 1016.02 1015.44 1014.83 1014.12 1013.59 1013.18 1013.20 1013.50 1013.50 1012.87 1013.15 1013.07 1013.21 1013.37 1013.57 1014.23 1014.73 1014.92 1015.08 1015.13 1015.22 1015.09 1015.00 1014.99 1015.07 1015.39 1015.62 1015.72 1016.10 1016.76 1017.33
1016.71 1016.61 1016.28 1016.00 1015.82 1015.79 1015.74 1015.75 1015.78 1015.97 1015.96 1015.88 1015.67 1015.73 1015.74 1015.35 1014.56 1014.16 1013.81 1013.40 1013.30 1013.22 1012.66 1012.22 1013.27 1013.53 1013.56 1013.75 1013.94 1014.43 1014.76 1015.13 1015.23 1015.41 1015.50 1015.51 1015.44 1015.47 1014.86 1015.41 1015.79 1016.00 1016.38 1016.85 1017.24
1016.83 1016.41 1016.11 1016.06 1015.98 1015.83 1015.78 1015.65 1015.50 1015.56 1015.55 1015.47 1015.50 1015.76 1015.48 1015.01 1014.56 1014.16 1013.81 1013.40 1012.95 1012.89 1012.37 1011.95 1012.87 1013.34 1013.73 1014.15 1014.34 1014.77 1015.23 1015.50 1015.60 1015.66 1015.73 1015.91 1015.94 1015.27 1015.03 1015.49 1015.92 1016.31 1016.65 1017.16 1017.41
1016.84 1016.34 1016.17 1016.14 1015.96 1015.74 1015.58 1015.49 1015.42 1015.35 1015.34 1015.48 1015.56 1015.60 1015.55 1014.77 1014.59 1014.35 1013.84 1013.24 1012.80 1012.32 1012.07 1012.54 1012.96 1013.55 1014.28 1014.48 1014.87 1015.14 1015.44 1015.98 1015.94 1015.89 1016.01 1016.16 1015.73 1014.90 1015.08 1015.67 1016.22 1016.57 1016.96 1017.11 1017.35
1016.77 1016.42 1016.32 1016.17 1015.92 1015.67 1015.57 1015.35 1015.20 1015.18 1015.16 1015.39 1015.62 1015.42 1015.52 1014.73 1014.91 1014.51 1014.34 1013.82 1012.97 1012.81 1012.73 1012.86 1012.69 1014.52 1015.20 1015.41 1015.92 1015.84 1016.13 1016.20 1016.47 1016.49 1016.47 1016.69 1016.23 1015.31 1015.49 1015.87 1016.33 1016.55 1016.90 1017.05 1017.32
1016.90 1016.47 1016.13 1016.04 1015.85 1015.35 1015.00 1014.70 1014.77 1014.86 1014.94 1014.99 1015.13 1015.71 1015.91 1016.06 1015.69 1015.03 1014.17 1013.80 1013.43 1013.29 1013.40 1013.55 1014.07 1015.62 1016.52 1016.82 1017.05 1016.83 1016.64 1016.53 1016.90 1017.36 1017.16 1017.15 1016.45 1016.03 1015.92 1015.98 1015.93 1016.24 1016.62 1016.91 1017.08
1016.92 1016.34 1015.95 1015.75 1015.49 1015.12 1014.62 1014.64 1015.52 1015.85 1016.05 1016.20 1016.01 1015.83 1016.20 1016.45 1015.94 1015.33 1014.72 1013.98 1013.60 1014.02 1014.97 1015.07 1016.10 1017.24 1017.93 1018.01 1017.45 1017.11 1017.15 1017.17 1017.48 1017.97 1018.09 1017.56 1016.95 1015.83 1015.45 1015.71 1015.90 1016.25 1016.34 1016.46 1016.71
1016.89 1016.38 1016.05 1015.72 1015.55 1015.19 1015.22 1015.83 1016.50 1016.69 1016.82 1016.29 1016.14 1016.07 1016.17 1016.31 1016.05 1015.14 1015.04 1014.79 1014.80 1015.51 1015.70 1016.45 1017.58 1018.26 1018.57 1018.30 1018.01 1018.02 1017.97 1018.20 1018.13 1018.56 1018.83 1018.29 1017.40 1015.62 1015.11 1014.97 1015.15 1015.68 1016.04 1016.20 1016.77
1016.90 1016.52 1016.14 1015.76 1015.57 1015.61 1015.95 1016.68 1016.78 1016.70 1016.49 1016.45 1016.22 1015.99 1016.33 1016.14 1016.41 1016.11 1015.85 1015.34 1015.86 1016.47 1017.27 1018.04 1019.10 1018.95 1018.69 1018.87 1018.84 1019.52 1019.48 1019.47 1020.26 1019.80 1019.38 1019.22 1017.85 1016.15 1015.31 1015.01 1014.93 1015.10 1015.32 1015.75 1016.24
1016.92 1016.52 1016.00 1015.65 1015.99 1016.13 1016.58 1016.77 1016.56 1016.55 1017.29 1017.34 1016.21 1016.08 1016.18 1016.44 1016.52 1016.56 1016.24 1016.17 1016.52 1017.20 1017.75 1019.07 1019.49 1019.27 1019.25 1019.71 1020.27 1020.95 1021.09 1020.64 1020.50 1021.82 1021.66 1020.85 1019.57 1017.04 1015.78 1015.29 1015.18 1015.20 1015.34 1015.65 1016.39
1017.00 1016.40 1016.03 1015.80 1016.02 1016.48 1016.99 1016.81 1016.59 1016.70 1017.87 1018.17 1017.27 1016.73 1016.77 1016.93 1017.22 1016.68 1016.48 1016.25 1017.14 1017.98 1018.52 1020.17 1020.06 1019.87 1020.21 1021.08 1021.11 1021.79 1021.33 1020.83 1023.34 1024.11 1024.02 1022.54 1021.57 1017.88 1016.43 1015.53 1015.40 1015.45 1015.64 1015.88 1016.31
1016.83 1016.46 1015.97 1016.18 1016.47 1016.92 1016.84 1016.79 1017.00 1017.69 1018.33 1018.16 1017.47 1017.20 1017.09 1016.84 1016.98 1016.93 1016.67 1016.64 1017.33 1018.08 1019.34 1020.53 1020.53 1021.08 1021.53 1021.65 1021.53 1022.03 1022.63 1023.76 1024.87 1025.36 1025.95 1023.91 1022.94 1019.04 1016.80 1015.49 1015.29 1015.52 1015.81 1016.12 1016.45
1016.48 1016.45 1016.22 1016.23 1016.90 1016.97 1017.04 1017.49 1018.04 1018.01 1018.68 1018.45 1017.88 1017.40 1017.37 1017.46 1017.27 1017.11 1017.18 1017.57 1018.26 1018.69 1020.03 1020.43 1020.94 1021.50 1021.81 1022.40 1023.01 1023.60 1024.27 1025.78 1027.08 1027.75 1026.71 1025.12 1023.83 1019.03 1016.25 1015.34 1014.86 1015.25 1015.65 1015.83 1016.10
1016.65 1016.55 1016.36 1016.33 1016.61 1016.79 1017.31 1018.11 1018.85 1018.99 1018.77 1018.44 1018.19 1017.88 1017.90 1018.00 1017.91 1017.68 1017.93 1018.59 1018.76 1019.29 1020.86 1021.82 1022.53 1022.74 1023.10 1023.51 1023.79 1024.36 1025.12 1026.77 1027.99 1028.36 1027.39 1025.65 1022.75 1017.64 1015.76 1014.98 1014.92 1015.20 1015.47 1015.86 1016.05
1016.62 1016.57 1016.61 1016.52 1016.59 1017.00 1017.53 1019.07 1019.76 1019.41 1018.86 1018.60 1018.51 1018.49 1018.55 1018.57 1018.71 1018.82 1019.22 1019.95 1020.07 1020.33 1021.10 1021.94 1022.75 1023.29 1023.46 1023.64 1024.07 1025.16 1026.03 1026.43 1027.56 1029.02 1028.07 1024.68 1021.20 1017.40 1016.13 1015.76 1015.51 1015.44 1015.50 1015.63 1015.87
1016.85 1016.77 1016.49 1016.30 1016.54 1017.32 1017.84 1019.61 1019.77 1019.35 1019.00 1018.78 1018.61 1018.50 1018.76 1018.83 1019.07 1019.23 1019.63 1019.94 1020.28 1020.60 1020.94 1021.65 1022.87 1023.63 1024.06 1024.29 1024.77 1025.25 1026.02 1026.67 1027.59 1028.61 1027.97 1024.68 1021.87 1018.51 1017.01 1016.04 1015.73 1015.50 1015.31 1015.31 1015.56
1016.75 1016.79 1016.08 1016.15 1016.71 1017.55 1019.51 1019.94 1019.71 1019.38 1019.17 1018.82 1018.51 1018.48 1018.53 1018.83 1019.17 1019.60 1020.23 1020.54 1020.54 1020.91 1021.08 1021.39 1022.36 1024.12 1024.29 1024.17 1024.18 1025.38 1025.53 1026.12 1026.81 1027.16 1027.39 1025.37 1021.19 1017.20 1016.43 1015.74 1015.37 1015.06 1015.12 1015.28 1015.55
1016.54 1016.70 1015.76 1016.07 1017.02 1018.69 1019.80 1019.48 1019.36 1019.30 1019.09 1018.83 1018.66 1018.40 1018.37 1018.43 1018.81 1019.30 1019.97 1020.38 1020.63 1020.89 1021.20 1021.27 1022.22 1023.37 1022.92 1022.86 1023.02 1023.65 1024.10 1024.73 1025.82 1026.46 1026.17 1025.05 1020.16 1016.02 1015.38 1015.03 1014.81 1014.71 1014.71 1014.66 1014.63
1017.41 1016.96 1015.59 1015.63 1017.67 1019.19 1019.34 1019.35 1019.25 1019.18 1019.05 1018.93 1018.70 1018.46 1018.33 1018.45 1018.88 1019.17 1019.70 1020.31 1020.44 1020.76 1021.12 1021.53 1022.21 1022.54 1022.71 1023.21 1023.10 1022.95 1022.98 1023.25 1023.94 1024.69 1024.69 1024.01 1018.84 1015.76 1015.29 1015.12 1015.09 1015.18 1014.97 1014.69 1014.52
1017.79 1017.97 1017.31 1017.28 1018.06 1018.49 1018.82 1018.82 1018.99 1019.03 1018.92 1018.78 1018.86 1018.79 1018.77 1018.77 1018.86 1019.30 1019.83 1020.43 1020.76 1021.15 1021.43 1021.50 1021.85 1022.01 1021.85 1021.53 1021.69 1022.45 1022.13 1022.46 1023.11 1023.95 1023.23 1020.79 1017.56 1015.52 1015.56 1015.50 1015.19 1015.02 1014.63 1014.47 1014.48
1018.24 1019.27 1018.97 1018.89 1018.69 1018.41 1018.14 1018.26 1018.55 1018.77 1019.01 1019.02 1019.05 1018.96 1018.89 1018.94 1019.03 1019.36 1019.80 1020.75 1021.28 1021.56 1021.87 1022.23 1022.36 1021.90 1020.98 1020.66 1020.64 1020.55 1020.58 1020.89 1021.73 1020.98 1021.21 1017.85 1018.05 1015.20 1015.28 1015.32 1014.92 1014.42 1014.14 1014.14 1013.97
1019.66 1019.98 1019.65 1019.24 1018.77 1018.46 1018.34 1018.15 1018.07 1018.12 1018.40 1018.73 1018.93 1018.69 1018.83 1018.90 1018.71 1019.13 1019.55 1020.37 1020.76 1021.95 1022.27 1022.53 1022.40 1021.96 1021.21 1020.28 1020.02 1019.94 1019.06 1019.04 1019.18 1019.25 1018.55 1017.49 1016.69 1013.99 1014.62 1014.51 1014.36 1013.96 1013.59 1013.53 1013.30
1020.35 1020.12 1020.05 1019.70 1019.23 1019.01 1018.41 1018.07 1017.98 1017.96 1018.13 1018.17 1018.57 1018.74 1018.81 1018.65 1018.66 1018.79 1018.99 1019.38 1019.82 1020.87 1021.97 1022.37 1022.53 1022.50 1021.54 1020.25 1019.64 1018.96 1017.10 1016.63 1017.27 1017.16 1016.65 1016.56 1014.75 1014.27 1014.30 1014.23 1013.72 1013.20 1013.04 1012.81 1012.51
Thickness
5542 5539 5537 5535 5532 5532 5532 5534 5534 5537 5538 5543 5551 5557 5564 5571 5588 5606 5623 5642 5655 5669 5681 5692 5703 5711 5718 5720 5729 5731 5699 5691 5705 5717 5725 5738 5736 5745 5750 5742 5743 5741 5738 5737 5740
5543 5538 5535 5533 5529 5528 5530 5531 5537 5536 5536 5539 5542 5546 5553 5564 5579 5600 5625 5638 5652 5664 5674 5685 5694 5703 5700 5710 5716 5708 5692 5703 5711 5717 5725 5733 5734 5734 5736 5733 5731 5728 5735 5738 5736
5542 5537 5533 5530 5528 5530 5531 5533 5535 5535 5532 5532 5537 5543 5554 5566 5574 5595 5617 5633 5649 5660 5669 5686 5697 5701 5699 5708 5712 5714 5696 5714 5710 5718 5727 5728 5727 5733 5727 5723 5731 5726 5724 5729 5727
5540 5537 5534 5532 5530 5530 5531 5532 5533 5531 5530 5532 5538 5546 5556 5563 5567 5594 5615 5633 5646 5656 5662 5682 5689 5691 5692 5694 5712 5695 5703 5711 5711 5714 5722 5719 5724 5723 5726 5726 5730 5731 5726 5723 5719
5541 5538 5537 5535 5533 5532 5532 5533 5533 5534 5535 5539 5544 5551 5557 5566 5576 5597 5614 5632 5645 5655 5663 5678 5680 5688 5687 5694 5702 5695 5701 5705 5708 5709 5710 5716 5716 5718 5720 5721 5723 5725 5724 5717 5711
5544 5542 5541 5540 5540 5537 5536 5536 5537 5537 5540 5542 5548 5554 5560 5562 5587 5598 5613 5628 5642 5653 5670 5681 5676 5683 5690 5692 5692 5699 5696 5697 5703 5703 5704 5704 5708 5713 5720 5717 5717 5717 5714 5711 5707
5548 5549 5547 5543 5541 5539 5538 5539 5541 5542 5545 5548 5553 5556 5562 5570 5587 5600 5614 5628 5644 5655 5666 5683 5682 5684 5688 5683 5694 5690 5684 5690 5693 5696 5697 5698 5697 5702 5718 5713 5711 5709 5707 5702 5700
5551 5552 5549 5546 5545 5544 5545 5545 5546 5547 5551 5554 5556 5561 5558 5580 5589 5600 5614 5629 5643 5655 5667 5673 5677 5680 5680 5684 5685 5684 5679 5670 5685 5690 5693 5693 5685 5711 5710 5706 5702 5701 5697 5696 5694
5556 5554 5550 5548 5547 5546 5547 5549 5552 5553 5555 5557 5560 5565 5562 5584 5587 5601 5611 5621 5638 5651 5662 5673 5678 5666 5670 5663 5656 5671 5658 5669 5670 5680 5683 5683 5684 5706 5703 5701 5696 5695 5692 5690 5687
5559 5558 5554 5552 5553 5553 5556 5560 5560 5562 5563 5566 5570 5567 5568 5571 5586 5598 5613 5623 5634 5646 5653 5660 5660 5643 5640 5635 5626 5652 5659 5668 5672 5667 5674 5674 5676 5687 5694 5693 5694 5691 5688 5684 5681
5568 5566 5565 5562 5561 5560 5565 5566 5560 5556 5557 5556 5561 5568 5571 5576 5587 5599 5610 5621 5635 5635 5629 5645 5634 5615 5632 5638 5651 5658 5660 5661 5659 5662 5660 5663 5668 5686 5690 5686 5685 5683 5682 5678 5677
5575 5573 5570 5569 5567 5568 5565 5560 5557 5561 5558 5566 5569 5572 5576 5579 5585 5600 5608 5617 5621 5617 5634 5627 5619 5629 5632 5642 5649 5651 5654 5648 5656 5657 5652 5654 5661 5687 5689 5688 5682 5680 5676 5675 5669
5580 5581 5580 5578 5576 5573 5567 5561 5560 5563 5564 5568 5573 5576 5576 5583 5581 5587 5600 5615 5615 5617 5616 5614 5617 5627 5635 5629 5638 5626 5636 5634 5633 5639 5649 5643 5653 5676 5682 5681 5683 5682 5679 5673 5669
5586 5586 5588 5588 5581 5578 5571 5569 5570 5571 5546 5559 5569 5576 5579 5580 5582 5590 5600 5610 5613 5614 5617 5611 5620 5626 5627 5622 5619 5624 5621 5631 5629 5612 5610 5632 5610 5659 5672 5672 5673 5672 5670 5667 5658
5592 5594 5595 5594 5589 5582 5580 5578 5578 5579 5520 5562 5567 5576 5577 5579 5583 5591 5602 5613 5608 5608 5617 5607 5612 5614 5613 5610 5616 5613 5623 5629 5608 5589 5584 5615 5578 5639 5660 5666 5660 5659 5660 5655 5651
5598 5600 5601 5597 5593 5589 5587 5586 5584 5564 5550 5562 5577 5576 5578 5587 5588 5595 5602 5611 5613 5612 5605 5597 5606 5601 5604 5607 5612 5612 5608 5599 5585 5570 5543 5607 5591 5617 5648 5656 5658 5653 5649 5647 5642
5607 5605 5604 5603 5596 5595 5594 5588 5562 5540 5577 5572 5577 5587 5588 5587 5593 5599 5603 5599 5598 5597 5601 5601 5600 5600 5601 5601 5599 5593 5577 5543 5565 5533 5583 5549 5560 5625 5650 5657 5659 5649 5642 5640 5636
5612 5611 5610 5608 5605 5602 5596 5586 5555 5587 5580 5583 5584 5591 5587 5589 5594 5601 5603 5593 5602 5605 5585 5574 5581 5589 5590 5589 5588 5579 5566 5542 5559 5557 5569 5545 5567 5627 5647 5650 5649 5645 5643 5634 5631
5617 5616 5614 5612 5609 5606 5597 5551 5566 5584 5588 5587 5587 5585 5586 5591 5586 5594 5596 5575 5594 5596 5592 5582 5592 5581 5581 5586 5583 5574 5541 5568 5516 5477 5511 5544 5604 5637 5638 5633 5632 5630 5632 5628 5624
5620 5619 5620 5620 5616 5607 5591 5579 5585 5589 5590 5592 5593 5592 5574 5589 5586 5594 5593 5592 5593 5593 5592 5594 5568 5577 5571 5574 5571 5568 5562 5545 5509 5552 5540 5566 5597 5608 5616 5624 5624 5624 5625 5624 5620
5624 5621 5626 5624 5619 5603 5570 5584 5589 5591 5591 5596 5596 5599 5600 5597 5595 5591 5586 5587 5591 5588 5590 5592 5573 5564 5563 5554 5555 5544 5532 5545 5539 5535 5515 5524 5579 5612 5607 5620 5623 5621 5621 5616 5612
5628 5622 5633 5628 5611 5580 5583 5598 5595 5594 5594 5596 5597 5601 5600 5601 5599 5592 5595 5591 5592 5586 5589 5592 5569 5544 5574 5578 5573 5562 5561 5556 5528 5547 5508 5503 5558 5628 5623 5622 5616 5615 5615 5613 5611
5619 5620 5634 5632 5594 5587 5597 5597 5597 5596 5596 5595 5598 5599 5600 5601 5598 5597 5594 5586 5587 5587 5587 5584 5571 5542 5577 5568 5563 5568 5566 5570 5559 5532 5526 5513 5571 5622 5619 5615 5606 5603 5603 5605 5604
5614 5602 5610 5611 5602 5605 5604 5603 5597 5593 5596 5598 5595 5595 5594 5592 5595 5591 5587 5580 5581 5579 5577 5575 5569 5574 5572 5584 5562 5559 5563 5559 5554 5494 5518 5543 5580 5617 5607 5592 5592 5592 5591 5591 5592
5602 5596 5595 5591 5598 5604 5606 5603 5599 5596 5588 5590 5590 5587 5588 5590 5589 5584 5585 5571 5569 5571 5567 5559 5553 5560 5572 5572 5571 5571 5575 5557 5537 5565 5545 5599 5546 5605 5590 5571 5579 5586 5586 5583 5585
5586 5584 5582 5586 5595 5597 5592 5594 5594 5595 5590 5587 5584 5589 5582 5583 5587 5587 5582 5574 5573 5553 5548 5544 5548 5563 5562 5571 5560 5555 5571 5574 5567 5567 5564 5572 5571 5598 5586 5579 5576 5578 5581 5577 5576
5567 5570 5572 5579 5582 5580 5582 5589 5589 5589 5587 5588 5579 5582 5580 5577 5578 5578 5576 5577 5573 5554 5539 5533 5527 5532 5522 5567 5562 5544 5576 5581 5564 5561 5567 5554 5578 5580 5574 5568 5566 5573 5567 5568 5568